Aérodrome :
LOGIN :

S'inscrire | Disclaimer

   EN    FR    IT 

 










Légende :    VFR   VFR Marginal   IFR   IFR Intensif   IFR Très Intensif
Visi : 
Plafond : 
>= 8 km
>= 3000ft
5 à 8 km
1000 à 3000 ft
1500m à 5 km
500 à 1000 ft
800 à 1500m
200 à 500 ft
< 800m
< 200 ft
Symboles :   Orages  Brouillard  Fortes neiges  Fortes précipitations  Vent > 20 kt
SIGMETs :   Divers  Orages  Givrage  Turbulence  Onde Orograph.  Cendres Volcan.






- Altitude de l'aérodrome : 598 ft
- Code IATA : BQH


EGKB - Biggin Hill

DERNIER METAR :
  • 201020Z 05007KT 020V080 9999 FEW030 12/05 Q1018

METARs EXPIRÉS :
  • 200950Z 04006KT 360V100 CAVOK 12/06 Q1018
  • 200920Z 06006KT 020V100 CAVOK 11/04 Q1018
  • 200850Z 05004KT 350V120 CAVOK 10/04 Q1018
  • 200820Z 05004KT CAVOK 10/04 Q1018
  • 200750Z VRB02KT CAVOK 10/04 Q1018

TAF TAF EGKB
Valide du 20 à 09h jusqu'au 20 à 18h UTC


200802Z 2009/2018 11003KT 9999 FEW045



MET'MAP, la Météo Aéronautique d'un coup d'oeil ! - Copyright ORBIFLY Décembre 2007 - Disclaimer

ORBIFLY MET'MAP TEAM :

Programmation & Développement : Alexandra Zaïnal
Sur une idée originale de : Baudouin d'Aumeries
Assistance à la programmation : Marc-Olivier Méhu
Soutien technique & logistique : Manuel Goepfert

Contact : metmap@orbifly.com




SOURCES & CREDITS :

   NOAA